When you browse on this site, cookies collect data to enhance your experience and personalize the content and advertising you see.
Visit our Privacy Policy to learn more. By continuing to use the site, you agree to this use of cookies and data.
  • In Netherlands
  • List of Countries
  • For 7 days
  • Water Temperature
  • Satellite Maps
  • Weather Map
  • Weather Widgets
  • user-avatar
    Login

    Hourly Weather Granada

    Today, 18 January, Friday

    Time Temperature Precipitation Wind Pressure Humidity
    00:00 +5°C° 0 mm 1 mps 701 mmHg 90%
    01:00 +4°C° 0 mm 1 mps 700 mmHg 89%
    02:00 +4°C° 0 mm 1 mps 700 mmHg 89%
    03:00 +4°C° 0 mm 1 mps 700 mmHg 88%
    04:00 +4°C° 0 mm 1 mps 700 mmHg 88%
    05:00 +4°C° 0 mm 1 mps 701 mmHg 87%
    06:00 +4°C° 0 mm 1 mps 701 mmHg 86%
    07:00 +5°C° 0 mm 1 mps 701 mmHg 81%
    08:00 +6°C° 0 mm 1 mps 701 mmHg 77%
    09:00 +8°C° 0 mm 1 mps 702 mmHg 72%
    10:00 +9°C° 0 mm 1 mps 702 mmHg 66%
    11:00 +9°C° 0 mm 2 mps 702 mmHg 60%
    12:00 +10°C° 0 mm 2 mps 702 mmHg 54%
    13:00 +10°C° 0 mm 2 mps 702 mmHg 54%
    14:00 +10°C° 0 mm 2 mps 702 mmHg 53%
    15:00 +10°C° 0 mm 2 mps 702 mmHg 53%
    16:00 +9°C° 0 mm 2 mps 701 mmHg 59%
    17:00 +8°C° 0 mm 2 mps 701 mmHg 66%
    18:00 +7°C° 0 mm 1 mps 701 mmHg 72%
    19:00 +7°C° 0 mm 1 mps 701 mmHg 73%
    20:00 +7°C° 0 mm 1 mps 701 mmHg 74%
    21:00 +6°C° 0 mm 1 mps 701 mmHg 75%
    22:00 +6°C° 0 mm 1 mps 701 mmHg 76%
    23:00 +5°C° 0 mm 1 mps 701 mmHg 78%

    Tomorrow, 19 January, Saturday

    Time Temperature Precipitation Wind Pressure Humidity
    00:00 +5°C° 0 mm 1 mps 701 mmHg 79%
    01:00 +4°C° 0 mm 1 mps 701 mmHg 77%
    02:00 +4°C° 0 mm 1 mps 701 mmHg 75%
    03:00 +4°C° 0 mm 1 mps 701 mmHg 73%
    04:00 +4°C° 0 mm 1 mps 701 mmHg 75%
    05:00 +4°C° 0 mm 1 mps 701 mmHg 78%
    06:00 +4°C° 0 mm 1 mps 701 mmHg 80%
    07:00 +5°C° 0 mm 1 mps 701 mmHg 75%
    08:00 +6°C° 0 mm 1 mps 701 mmHg 71%
    09:00 +7°C° 0 mm 1 mps 702 mmHg 67%
    10:00 +8°C° 0 mm 2 mps 702 mmHg 62%
    11:00 +9°C° 0 mm 2 mps 702 mmHg 58%
    12:00 +11°C° 0 mm 3 mps 702 mmHg 54%
    13:00 +10°C° 0.2 mm 2 mps 701 mmHg 59%
    14:00 +10°C° 0.2 mm 2 mps 701 mmHg 65%
    15:00 +10°C° 0.2 mm 2 mps 700 mmHg 71%
    16:00 +9°C° 0.5 mm 2 mps 700 mmHg 76%
    17:00 +9°C° 0.5 mm 2 mps 700 mmHg 81%
    18:00 +8°C° 0.5 mm 2 mps 700 mmHg 86%
    19:00 +8°C° 0.4 mm 2 mps 699 mmHg 87%
    20:00 +8°C° 0.4 mm 2 mps 699 mmHg 89%
    21:00 +8°C° 0.4 mm 2 mps 699 mmHg 90%
    22:00 +8°C° 1.6 mm 2 mps 699 mmHg 90%
    23:00 +8°C° 1.6 mm 2 mps 698 mmHg 90%

    Day after tomorrow, 20 January, Sunday

    Time Temperature Precipitation Wind Pressure Humidity
    00:00 +8°C° 1.6 mm 2 mps 698 mmHg 90%
    01:00 +8°C° 0.3 mm 2 mps 698 mmHg 90%
    02:00 +8°C° 0.3 mm 3 mps 698 mmHg 90%
    03:00 +8°C° 0.3 mm 3 mps 697 mmHg 90%
    04:00 +8°C° 0.1 mm 3 mps 697 mmHg 90%
    05:00 +8°C° 0.1 mm 3 mps 697 mmHg 91%
    06:00 +8°C° 0.1 mm 3 mps 696 mmHg 91%
    07:00 +8°C° 0.3 mm 3 mps 697 mmHg 89%
    08:00 +8°C° 0.3 mm 2 mps 697 mmHg 87%
    09:00 +8°C° 0.3 mm 2 mps 697 mmHg 84%
    10:00 +9°C° 0.2 mm 3 mps 697 mmHg 83%
    11:00 +9°C° 0.2 mm 3 mps 698 mmHg 81%
    12:00 +9°C° 0.2 mm 3 mps 698 mmHg 79%
    13:00 +10°C° 0.2 mm 3 mps 698 mmHg 78%
    14:00 +10°C° 0.2 mm 3 mps 698 mmHg 77%
    15:00 +10°C° 0.2 mm 3 mps 697 mmHg 75%
    16:00 +9°C° 0.1 mm 3 mps 698 mmHg 80%
    17:00 +8°C° 0.1 mm 3 mps 698 mmHg 85%
    18:00 +7°C° 0.1 mm 3 mps 699 mmHg 90%
    19:00 +7°C° 0 mm 2 mps 699 mmHg 89%
    20:00 +6°C° 0 mm 2 mps 700 mmHg 88%
    21:00 +5°C° 0 mm 2 mps 700 mmHg 88%
    22:00 +5°C° 0 mm 2 mps 700 mmHg 85%
    23:00 +4°C° 0 mm 2 mps 701 mmHg 82%

    21 January, Monday

    Time Temperature Precipitation Wind Pressure Humidity
    00:00 +4°C° 0 mm 2 mps 701 mmHg 80%
    01:00 +4°C° 0 mm 2 mps 701 mmHg 78%
    02:00 +3°C° 0 mm 2 mps 701 mmHg 76%
    03:00 +3°C° 0 mm 2 mps 701 mmHg 74%
    04:00 +3°C° 0 mm 2 mps 701 mmHg 72%
    05:00 +3°C° 0 mm 2 mps 701 mmHg 70%
    06:00 +2°C° 0 mm 2 mps 702 mmHg 68%
    07:00 +3°C° 0 mm 2 mps 702 mmHg 66%
    08:00 +4°C° 0 mm 2 mps 703 mmHg 64%
    09:00 +5°C° 0 mm 2 mps 703 mmHg 61%
    10:00 +6°C° 0 mm 2 mps 704 mmHg 57%
    11:00 +7°C° 0 mm 2 mps 704 mmHg 52%
    12:00 +8°C° 0 mm 2 mps 704 mmHg 47%
    13:00 +8°C° 0 mm 3 mps 704 mmHg 48%
    14:00 +9°C° 0 mm 3 mps 703 mmHg 48%
    15:00 +9°C° 0 mm 3 mps 703 mmHg 48%
    16:00 +7°C° 0 mm 3 mps 703 mmHg 55%
    17:00 +6°C° 0 mm 2 mps 703 mmHg 61%
    18:00 +4°C° 0 mm 2 mps 703 mmHg 68%
    19:00 +4°C° 0 mm 2 mps 704 mmHg 69%
    20:00 +4°C° 0 mm 2 mps 704 mmHg 69%
    21:00 +3°C° 0 mm 2 mps 705 mmHg 70%
    22:00 +3°C° 0 mm 2 mps 705 mmHg 71%
    23:00 +3°C° 0 mm 2 mps 705 mmHg 71%

    22 January, Tuesday

    Time Temperature Precipitation Wind Pressure Humidity
    00:00 +2°C° 0 mm 2 mps 705 mmHg 72%
    01:00 +2°C° 0 mm 2 mps 705 mmHg 73%
    02:00 +2°C° 0 mm 2 mps 705 mmHg 74%
    03:00 +2°C° 0 mm 1 mps 704 mmHg 76%
    04:00 +1°C° 0 mm 2 mps 704 mmHg 74%
    05:00 +1°C° 0 mm 2 mps 705 mmHg 73%
    06:00 +1°C° 0 mm 2 mps 705 mmHg 72%
    07:00 +2°C° 0 mm 2 mps 705 mmHg 65%
    08:00 +3°C° 0 mm 2 mps 706 mmHg 58%
    09:00 +4°C° 0 mm 2 mps 706 mmHg 51%
    10:00 +6°C° 0 mm 2 mps 706 mmHg 43%
    11:00 +8°C° 0 mm 1 mps 706 mmHg 34%
    12:00 +10°C° 0 mm 1 mps 706 mmHg 26%
    13:00 +9°C° 0 mm 2 mps 705 mmHg 25%
    14:00 +9°C° 0 mm 2 mps 705 mmHg 24%
    15:00 +9°C° 0 mm 2 mps 704 mmHg 24%
    16:00 +8°C° 0 mm 2 mps 704 mmHg 30%
    17:00 +6°C° 0 mm 2 mps 703 mmHg 36%
    18:00 +4°C° 0 mm 2 mps 703 mmHg 41%
    19:00 +4°C° 0 mm 2 mps 703 mmHg 43%
    20:00 +3°C° 0 mm 2 mps 703 mmHg 46%
    21:00 +3°C° 0 mm 2 mps 703 mmHg 48%
    22:00 +3°C° 0 mm 2 mps 703 mmHg 52%
    23:00 +3°C° 0 mm 2 mps 702 mmHg 57%

    23 January, Wednesday

    Time Temperature Precipitation Wind Pressure Humidity
    00:00 +3°C° 0 mm 2 mps 702 mmHg 61%
    01:00 +3°C° 0 mm 2 mps 702 mmHg 65%
    02:00 +3°C° 0 mm 2 mps 701 mmHg 68%
    03:00 +3°C° 0 mm 2 mps 701 mmHg 72%
    04:00 +3°C° 0 mm 2 mps 701 mmHg 76%
    05:00 +3°C° 0 mm 2 mps 701 mmHg 80%
    06:00 +4°C° 0 mm 2 mps 701 mmHg 84%
    07:00 +4°C° 0 mm 2 mps 701 mmHg 82%
    08:00 +4°C° 0 mm 3 mps 701 mmHg 80%
    09:00 +4°C° 0 mm 3 mps 701 mmHg 78%
    10:00 +5°C° 0 mm 3 mps 701 mmHg 73%
    11:00 +8°C° 0 mm 3 mps 701 mmHg 68%
    12:00 +9°C° 0 mm 3 mps 701 mmHg 62%
    13:00 +9°C° 0 mm 3 mps 700 mmHg 62%
    14:00 +8°C° 0 mm 4 mps 700 mmHg 62%
    15:00 +8°C° 0 mm 4 mps 699 mmHg 61%
    16:00 +7°C° 0 mm 4 mps 699 mmHg 68%
    17:00 +5°C° 0 mm 3 mps 699 mmHg 75%
    18:00 +4°C° 0 mm 3 mps 698 mmHg 81%
    19:00 +5°C° 0 mm 3 mps 698 mmHg 83%
    20:00 +5°C° 0 mm 3 mps 699 mmHg 85%
    21:00 +5°C° 0 mm 3 mps 699 mmHg 87%
    22:00 +5°C° 0 mm 4 mps 698 mmHg 88%
    23:00 +5°C° 0 mm 4 mps 698 mmHg 89%
    Show more